Temp
8 8 7 8 8 8 8 8 8 8 8 8 8 8 8 8 8 8 8 8 8 9 9 8 8 8 8 8 8 8 7 7 7 7 7 7 6 6 6 6 5 5 5
8 7 7 7 8 8 8 8 8 8 8 7 7 7 7 7 7 7 7 8 8 8 8 8 8 8 8 8 8 8 8 7 7 7 6 6 6 6 6 5 4 5 6
7 6 7 8 8 8 8 8 8 8 7 7 7 7 7 7 7 7 7 8 8 8 8 8 8 8 8 8 8 8 8 7 7 7 7 7 6 5 5 5 5 3 4
9 8 8 8 8 8 7 7 8 8 7 7 7 7 6 6 6 7 7 7 7 7 7 7 7 7 7 8 7 7 7 7 7 7 6 6 6 5 4 4 4 4 5
9 8 9 8 8 8 7 8 8 7 7 7 7 7 6 6 6 6 6 6 7 7 7 7 7 7 7 7 7 7 7 7 6 6 6 5 5 5 5 4 4 4 4
9 9 9 8 8 8 8 8 7 7 7 7 7 7 6 6 6 6 7 6 6 6 6 6 6 7 7 7 6 6 6 6 6 6 6 5 5 4 4 4 4 4 4
9 8 8 8 8 7 7 7 7 7 7 7 7 7 7 7 6 6 6 7 7 7 6 6 6 6 6 6 5 5 5 5 5 5 5 5 5 5 4 4 4 4 4
8 7 8 7 7 7 7 7 7 7 7 7 7 7 7 7 7 6 6 6 6 6 6 6 6 6 5 5 5 5 5 5 5 4 4 4 4 4 4 4 4 3 3
8 6 6 6 6 6 7 7 8 7 7 7 7 7 7 7 7 7 7 6 6 6 6 5 5 5 5 5 5 4 4 4 5 4 4 4 4 4 4 4 3 3 3
8 6 6 6 5 6 7 6 7 7 7 6 7 7 7 7 7 7 7 7 6 6 6 5 4 4 4 4 4 4 4 4 4 4 5 4 4 4 4 4 3 3 2
8 6 6 5 6 6 6 4 6 7 7 7 7 7 7 7 7 7 7 7 7 6 5 4 4 4 3 3 4 4 4 4 4 4 4 4 4 4 3 3 3 2 2
8 7 8 7 6 5 5 6 6 6 6 6 7 7 7 7 7 7 7 6 6 6 5 5 5 4 3 3 4 4 4 4 3 4 3 3 2 2 3 2 2 2 1
8 8 7 7 7 7 7 6 6 6 6 6 7 7 7 7 7 7 7 7 7 6 6 5 4 4 4 3 3 3 3 3 3 3 2 2 2 2 2 2 2 2 1
8 8 8 7 7 7 7 7 7 7 7 7 7 6 7 7 7 7 7 6 6 6 5 5 4 4 4 3 3 3 3 3 2 2 2 2 1 2 2 1 1 1 0
8 8 8 8 8 8 8 8 7 7 7 7 7 6 6 7 7 6 6 6 6 5 5 4 4 3 3 3 3 3 3 2 2 1 1 1 1 1 1 0 0 0 -0
9 8 8 8 8 8 8 7 8 8 7 7 5 5 5 6 6 6 6 6 5 5 5 4 3 2 3 3 2 2 2 1 1 1 1 1 0 0 -0 -1 -0 -1 -2
8 8 8 8 8 8 8 8 8 8 7 7 5 5 6 5 6 6 6 5 5 4 3 2 2 3 -0 -0 0 -0 1 1 0 0 0 0 0 -0 -1 -1 -2 -3 -3
7 7 7 7 8 7 7 7 7 7 6 6 6 5 5 5 5 5 5 5 4 4 3 2 2 -1 -1 0 -0 -1 -1 -0 0 1 -0 -0 -1 -1 -2 -4 -4 -5 -4
7 7 7 7 7 7 7 7 7 7 6 6 6 5 6 5 5 5 5 4 4 3 2 1 -1 -1 -1 -1 -0 -0 -1 -1 -1 -2 -2 -2 -2 -3 -4 -5 -5 -5 -5
5 6 6 6 6 6 6 6 6 5 5 6 6 5 5 5 5 4 4 4 3 3 2 1 -1 -2 -1 -1 -0 -0 -1 -2 -2 -2 -3 -5 -5 -4 -4 -3 -3 -3 -4
4 5 6 5 5 5 4 4 3 3 2 2 4 6 4 4 4 4 3 3 2 1 -0 -2 -2 -2 -2 -2 -2 -2 -2 -3 -4 -5 -4 -5 -5 -5 -4 -3 -2 -3 -3
4 4 3 4 4 2 2 2 2 2 2 2 1 2 3 3 3 2 2 1 1 1 -2 -2 -2 -3 -3 -3 -3 -3 -4 -4 -4 -4 -4 -4 -3 -4 -4 -3 -3 -3 -3
3 3 3 3 2 3 2 1 0 0 0 0 -1 1 1 1 1 0 -2 -1 -1 -1 -1 -2 -1 -2 -3 -3 -3 -3 -3 -4 -4 -4 -4 -4 -4 -3 -3 -3 -3 -3 -3
3 3 3 3 2 2 2 2 -0 -1 -1 -1 -1 -1 -1 -1 -1 -2 -2 -2 -2 -2 -3 -1 -2 -2 -3 -3 -3 -3 -3 -3 -4 -4 -4 -4 -3 -3 -3 -3 -3 -3 -3
2 2 2 3 2 2 2 1 1 -1 -1 1 -1 -1 -1 -1 -1 -1 -2 -2 -2 -2 -2 -3 -3 -3 -3 -3 -3 -3 -3 -3 -3 -4 -4 -3 -3 -3 -3 -3 -3 -3 -4
2 2 2 2 2 1 1 1 0 -0 -1 -1 -1 -1 -1 -1 -1 -1 -1 -2 -2 -2 -2 -2 -2 -3 -3 -2 -1 -3 -3 -3 -3 -3 -3 -3 -3 -3 -3 -3 -3 -4 -4
Height
3168 3168 3169 3172 3173 3174 3174 3174 3173 3171 3170 3169 3168 3167 3168 3168 3168 3168 3168 3168 3168 3167 3166 3166 3165 3164 3164 3164 3163 3163 3164 3165 3165 3167 3167 3167 3168 3168 3169 3168 3169 3168 3167
3166 3165 3167 3171 3173 3174 3174 3175 3172 3170 3170 3169 3169 3169 3168 3169 3169 3169 3168 3169 3168 3167 3166 3165 3165 3165 3164 3164 3163 3163 3164 3164 3165 3165 3165 3166 3166 3167 3166 3167 3166 3165 3165
3163 3165 3168 3170 3172 3174 3174 3174 3172 3172 3170 3169 3168 3168 3168 3168 3168 3169 3169 3168 3168 3167 3166 3165 3164 3163 3163 3163 3163 3162 3162 3163 3163 3163 3162 3162 3163 3163 3163 3164 3163 3163 3161
3164 3166 3168 3171 3172 3173 3173 3174 3173 3171 3170 3169 3167 3168 3167 3168 3168 3168 3168 3168 3168 3167 3165 3164 3164 3163 3163 3163 3163 3162 3162 3162 3161 3161 3160 3160 3160 3160 3161 3160 3159 3159 3157
3166 3167 3169 3171 3172 3173 3173 3174 3172 3171 3169 3168 3167 3167 3167 3167 3167 3167 3167 3166 3167 3166 3166 3165 3165 3164 3163 3163 3162 3162 3162 3161 3160 3159 3159 3158 3158 3157 3157 3156 3156 3155 3154
3166 3167 3168 3169 3170 3171 3172 3172 3171 3171 3170 3169 3167 3166 3166 3165 3166 3166 3166 3165 3165 3165 3165 3164 3164 3163 3163 3162 3162 3161 3161 3160 3159 3158 3156 3156 3155 3155 3154 3154 3152 3151 3151
3165 3165 3166 3166 3167 3168 3169 3169 3170 3170 3169 3168 3167 3166 3165 3165 3164 3164 3164 3164 3163 3164 3164 3164 3163 3162 3161 3160 3160 3159 3158 3157 3157 3156 3154 3153 3152 3152 3151 3150 3148 3146 3146
3162 3162 3162 3161 3164 3164 3165 3167 3168 3168 3167 3166 3166 3165 3164 3164 3163 3162 3162 3162 3162 3162 3162 3162 3162 3161 3160 3159 3159 3158 3157 3156 3154 3152 3152 3151 3150 3148 3147 3147 3145 3144 3143
3158 3155 3156 3155 3157 3159 3160 3163 3164 3165 3165 3165 3163 3163 3162 3162 3161 3160 3159 3160 3159 3160 3160 3160 3160 3159 3158 3158 3156 3155 3154 3153 3151 3150 3149 3148 3147 3146 3145 3144 3143 3141 3139
3152 3150 3150 3148 3151 3150 3148 3157 3159 3161 3162 3162 3161 3161 3160 3159 3159 3159 3158 3157 3157 3157 3156 3156 3156 3156 3155 3154 3153 3152 3152 3151 3149 3147 3146 3144 3143 3142 3141 3140 3139 3138 3135
3151 3148 3147 3149 3140 3149 3137 3142 3151 3155 3157 3158 3158 3158 3158 3158 3157 3156 3155 3155 3154 3153 3152 3153 3153 3152 3152 3151 3150 3148 3147 3146 3144 3143 3142 3141 3140 3139 3139 3137 3136 3135 3133
3150 3150 3150 3147 3147 3148 3146 3145 3149 3150 3153 3153 3154 3155 3155 3155 3155 3154 3153 3152 3150 3150 3149 3149 3149 3149 3149 3148 3146 3145 3144 3143 3141 3140 3138 3137 3137 3136 3135 3135 3133 3131 3130
3150 3150 3150 3150 3150 3150 3150 3148 3149 3149 3148 3149 3149 3150 3151 3151 3151 3150 3149 3149 3148 3147 3147 3146 3145 3145 3144 3144 3143 3141 3140 3138 3138 3136 3135 3135 3135 3134 3132 3131 3130 3128 3126
3149 3148 3149 3149 3149 3148 3147 3147 3146 3146 3144 3145 3145 3145 3146 3146 3147 3146 3146 3145 3144 3144 3142 3142 3141 3140 3140 3139 3138 3138 3137 3135 3134 3133 3132 3131 3130 3129 3127 3126 3124 3123 3121
3147 3147 3146 3145 3145 3144 3142 3141 3140 3140 3139 3139 3140 3140 3140 3141 3142 3142 3141 3141 3139 3139 3138 3137 3137 3136 3135 3135 3135 3133 3133 3132 3131 3130 3129 3127 3126 3125 3124 3122 3121 3120 3118
3143 3142 3141 3140 3139 3138 3137 3136 3134 3134 3133 3133 3134 3134 3135 3136 3136 3136 3136 3135 3135 3134 3134 3133 3132 3132 3132 3129 3129 3129 3129 3128 3127 3126 3125 3123 3122 3121 3120 3119 3117 3116 3115
3138 3137 3136 3135 3134 3132 3131 3130 3129 3128 3128 3128 3130 3130 3130 3131 3131 3130 3130 3130 3129 3130 3129 3129 3128 3127 3127 3128 3127 3125 3124 3124 3123 3122 3121 3120 3119 3118 3117 3115 3114 3113 3111
3133 3131 3130 3128 3128 3128 3126 3125 3124 3123 3123 3123 3123 3123 3124 3124 3124 3124 3124 3124 3124 3124 3124 3124 3124 3124 3124 3124 3123 3123 3120 3120 3119 3119 3117 3116 3115 3114 3113 3113 3112 3112 3109
3125 3124 3122 3121 3119 3119 3119 3118 3117 3117 3116 3117 3117 3117 3118 3118 3118 3118 3118 3118 3118 3119 3119 3119 3119 3120 3119 3119 3118 3118 3117 3116 3115 3114 3113 3112 3110 3111 3110 3110 3109 3107 3105
3116 3115 3113 3112 3111 3110 3110 3111 3111 3110 3109 3109 3109 3109 3110 3111 3111 3111 3112 3112 3112 3113 3114 3115 3115 3114 3114 3114 3113 3113 3114 3113 3111 3110 3108 3108 3109 3107 3106 3104 3103 3102 3101
3108 3106 3105 3103 3101 3101 3101 3102 3102 3103 3102 3100 3100 3103 3104 3104 3104 3105 3105 3106 3107 3107 3107 3111 3110 3109 3109 3108 3109 3108 3107 3107 3107 3106 3107 3106 3104 3103 3101 3099 3097 3095 3093
3101 3099 3097 3096 3095 3094 3095 3096 3097 3099 3099 3097 3094 3096 3097 3097 3098 3099 3100 3101 3102 3102 3103 3104 3106 3104 3104 3103 3102 3101 3103 3103 3103 3103 3102 3099 3098 3097 3094 3092 3091 3089 3087
3096 3094 3092 3090 3090 3089 3089 3090 3092 3092 3093 3094 3089 3090 3093 3094 3093 3093 3094 3094 3095 3096 3097 3097 3099 3101 3099 3097 3096 3097 3098 3097 3095 3096 3095 3093 3091 3089 3087 3085 3083 3081 3080
3090 3088 3086 3085 3084 3084 3083 3084 3085 3085 3088 3089 3088 3085 3088 3089 3088 3090 3092 3093 3092 3091 3091 3092 3094 3095 3095 3091 3091 3092 3090 3091 3090 3087 3087 3085 3083 3080 3079 3077 3075 3073 3071
3083 3081 3079 3079 3078 3078 3077 3077 3076 3075 3076 3076 3079 3080 3078 3078 3080 3081 3083 3086 3086 3086 3086 3086 3085 3085 3085 3084 3083 3080 3083 3083 3080 3079 3077 3075 3073 3071 3070 3069 3067 3065 3063
3075 3074 3073 3072 3071 3071 3072 3072 3070 3071 3072 3073 3074 3075 3073 3074 3074 3073 3076 3078 3077 3079 3078 3078 3077 3076 3074 3074 3072 3073 3072 3071 3071 3069 3068 3066 3064 3062 3061 3059 3057 3056 3054
Wind_Speed
10 13 11 7 5 2 2 3 6 8 7 5 2 1 1 1 1 3 5 5 4 4 3 2 1 1 1 1 2 0 3 4 4 4 6 6 7 9 5 4 9 11 12
11 14 12 8 6 3 1 2 7 10 9 6 4 3 1 1 1 2 3 4 5 6 6 6 6 4 3 3 4 3 3 3 4 5 8 5 5 7 5 9 9 13 13
6 5 10 9 6 3 1 4 6 7 8 5 3 2 1 1 1 2 2 3 3 4 5 4 3 3 3 3 3 3 3 4 5 5 5 3 6 7 8 10 12 13 15
2 13 11 9 6 3 2 1 5 9 10 8 4 2 2 2 3 3 4 4 5 5 5 4 4 4 4 3 3 3 4 5 5 6 6 5 8 10 8 14 15 13 15
16 11 10 8 7 5 5 3 3 8 11 11 6 2 2 3 4 4 4 5 5 4 4 4 4 5 5 6 6 6 6 6 6 6 6 5 7 7 10 11 12 13 13
15 12 10 11 9 9 8 6 4 7 8 11 10 5 2 3 4 5 4 4 4 3 2 3 4 6 7 8 9 9 8 9 9 9 8 8 9 9 10 11 12 14 13
13 21 15 16 15 14 12 10 5 6 7 10 10 9 6 3 4 5 5 5 4 4 3 4 5 4 7 9 11 10 10 10 10 10 11 12 12 11 12 13 13 15 15
19 22 27 18 14 15 14 11 6 7 8 10 10 10 8 6 7 5 6 6 6 6 6 8 8 8 9 11 13 11 11 11 13 12 11 11 12 12 12 12 13 14 14
23 25 26 24 16 15 16 16 13 9 9 11 12 10 9 7 7 7 6 8 9 10 10 9 9 9 10 10 13 9 11 11 11 10 10 11 11 12 13 13 13 14 14
21 22 25 28 27 20 20 17 13 10 11 10 13 14 11 8 7 8 8 7 10 11 12 10 11 10 11 13 14 12 11 12 9 11 10 10 12 11 11 11 11 11 13
14 16 11 13 9 13 16 17 13 13 12 14 16 16 15 12 9 10 11 11 11 12 10 13 13 10 11 15 15 14 13 13 11 9 9 7 9 7 3 7 9 8 12
13 11 10 14 14 11 11 12 15 14 17 22 22 19 17 15 10 10 11 11 12 12 12 14 12 12 12 15 14 13 12 10 8 8 6 7 7 10 11 8 9 9 10
14 13 10 14 14 14 15 13 14 19 23 23 15 15 19 17 12 11 13 13 14 14 13 14 15 16 16 12 11 11 10 8 8 6 7 9 10 9 11 11 11 10 10
14 13 14 14 11 17 20 20 21 21 23 23 20 19 18 18 14 13 14 15 14 14 14 13 14 14 12 11 11 8 8 7 6 7 9 10 11 12 13 11 11 10 11
13 17 18 20 20 22 23 25 26 25 26 27 24 22 20 19 16 14 17 16 16 15 16 15 15 11 13 14 10 8 7 6 7 8 10 10 11 12 11 11 11 11 10
19 22 22 21 20 20 20 21 22 21 23 24 22 22 24 20 19 18 18 17 17 18 16 15 13 13 14 12 12 12 9 7 9 10 11 11 11 12 10 12 11 10 11
23 24 22 22 20 20 19 19 19 21 20 20 22 27 22 21 22 21 19 20 19 18 16 14 14 14 10 16 13 11 14 10 12 13 12 12 12 11 11 11 10 10 15
26 26 27 27 25 21 21 20 20 20 20 21 22 24 26 24 23 22 22 21 19 18 17 16 15 12 20 16 14 13 16 14 15 13 12 13 13 12 9 9 8 10 18
30 30 31 29 30 28 24 23 22 22 22 23 25 26 25 24 24 23 22 21 19 18 16 15 12 19 24 19 17 16 15 16 16 15 15 13 11 12 8 7 9 12 14
24 24 26 29 29 30 29 27 27 26 27 27 28 28 27 26 24 22 21 20 18 16 15 14 15 24 24 19 19 16 15 15 14 11 10 10 16 15 15 17 19 18 19
24 24 22 22 23 26 26 23 20 17 19 24 26 21 20 22 22 20 19 17 16 16 12 15 20 23 18 17 17 15 14 9 7 12 14 17 20 23 23 25 21 22 19
25 25 25 25 20 18 22 20 15 14 18 18 24 30 21 19 20 18 17 17 17 17 16 23 20 19 18 17 18 19 16 8 17 20 26 28 23 25 27 26 25 24 23
25 24 24 24 20 20 22 20 21 23 26 23 25 24 18 16 14 11 15 14 13 14 17 22 16 18 19 22 25 27 23 25 28 27 25 26 27 27 28 27 27 26 26
25 25 25 23 19 21 24 23 24 19 15 16 21 26 21 18 18 15 20 18 18 18 20 16 16 19 20 28 29 28 29 26 28 30 28 29 29 29 29 28 28 28 28
25 26 26 24 23 19 22 24 29 33 28 30 27 29 28 23 22 11 18 22 25 28 27 22 27 25 24 28 30 32 28 28 27 28 29 30 30 30 30 29 29 29 28
33 29 26 24 24 20 20 23 25 23 24 25 32 40 40 33 23 24 28 28 29 26 27 30 29 29 31 25 27 25 25 26 27 29 29 30 31 31 30 30 29 29 28
Wind_Direction
286 242 212 233 207 187 75 30 25 27 23 22 1 9 359 329 49 46 24 15 13 21 14 11 39 5 332 353 50 17 228 226 226 254 272 277 275 273 297 276 299 297 294
275 233 235 196 196 172 97 31 43 34 22 13 13 2 7 353 1 27 23 14 16 24 20 26 20 19 357 328 321 309 292 282 270 261 259 253 264 276 274 303 304 295 287
301 232 163 190 177 171 67 16 38 31 27 20 16 353 332 303 295 301 301 320 338 348 345 351 359 7 10 2 355 325 311 300 289 288 299 226 226 312 251 292 295 299 319
257 165 185 187 190 182 172 334 31 24 18 11 8 332 283 258 273 283 296 312 329 335 351 9 17 18 21 19 27 359 339 323 313 305 292 259 256 262 274 281 289 290 308
172 188 204 199 208 208 238 274 16 17 18 9 2 302 293 277 267 273 291 313 321 328 353 10 17 17 13 6 1 354 339 329 320 315 310 300 290 282 283 300 300 301 305
208 221 216 217 227 238 244 275 334 353 7 4 1 331 294 272 268 282 298 298 306 310 327 350 1 1 354 351 344 332 329 331 327 321 312 302 299 300 300 304 305 304 304
260 242 232 229 225 235 253 263 296 331 347 353 17 12 1 333 287 273 277 287 291 300 312 323 328 332 349 349 346 335 331 332 329 322 321 317 311 308 307 309 312 315 319
289 256 246 233 232 228 247 260 265 310 329 336 1 10 352 335 344 291 276 280 281 280 286 300 308 312 331 339 336 327 323 320 326 313 313 309 307 308 309 311 309 305 305
294 265 237 233 236 238 230 239 255 279 308 323 338 351 343 327 330 337 300 281 277 279 279 286 295 296 306 319 329 315 319 322 323 321 307 307 304 301 300 300 293 290 292
298 263 248 229 234 240 232 229 227 269 288 318 328 333 329 317 317 327 314 301 279 274 276 286 297 284 304 311 329 315 309 313 309 307 303 297 295 295 293 291 294 296 289
25 17 296 252 294 273 287 228 244 261 278 294 313 320 315 308 311 316 316 311 295 289 284 273 289 289 291 303 311 312 310 310 310 305 294 282 283 290 291 301 299 294 286
323 341 354 333 330 302 331 279 268 272 283 291 292 292 295 296 290 291 304 306 308 302 296 287 284 287 289 299 297 300 298 297 294 285 299 308 312 320 316 316 306 300 293
313 309 289 301 327 326 319 306 285 291 292 289 275 276 280 285 280 299 304 300 296 291 291 290 285 285 286 278 286 295 290 293 284 287 294 307 308 306 306 306 302 300 297
291 294 289 277 301 282 282 283 284 287 289 280 272 275 273 280 278 283 286 286 291 291 293 288 286 285 286 292 292 285 281 278 289 295 298 301 305 311 313 315 315 317 314
304 279 280 279 279 282 283 283 280 267 262 271 271 263 265 275 278 280 280 282 284 286 288 290 291 285 285 289 263 290 298 289 288 291 300 303 304 305 317 315 316 318 320
282 291 285 286 290 288 285 286 284 274 264 261 248 259 269 269 275 270 276 277 279 281 282 283 280 280 270 289 300 298 289 291 300 302 302 303 303 304 307 310 319 319 318
280 285 285 285 288 288 287 284 281 277 272 262 250 253 264 270 272 274 275 276 276 276 279 274 272 273 274 262 265 271 284 304 296 299 298 299 297 301 306 313 323 324 316
284 281 282 283 283 278 278 279 278 274 267 259 259 260 264 264 266 267 268 271 273 275 272 270 272 249 270 269 261 258 268 281 286 296 298 300 300 305 303 314 331 313 320
285 281 279 279 280 278 273 274 274 272 271 269 267 264 259 263 264 265 268 271 270 265 261 255 246 236 266 270 259 263 273 283 294 297 298 292 304 315 308 301 276 269 284
291 290 284 273 268 270 270 266 264 265 263 261 263 263 264 261 262 262 266 268 264 256 242 239 229 247 263 261 267 276 273 265 267 290 307 314 300 292 287 299 295 295 279
297 296 293 295 286 275 273 269 271 270 279 282 269 262 257 254 254 258 261 258 254 248 228 236 241 258 271 276 282 283 293 291 304 314 293 275 273 277 298 299 303 304 300
296 297 298 299 299 280 248 265 251 248 249 248 254 267 257 250 253 252 249 248 240 239 211 229 233 251 272 277 280 282 289 238 244 253 256 269 287 292 294 297 299 299 297
292 291 294 290 294 266 267 254 240 239 244 247 252 260 261 258 262 259 271 276 260 246 232 241 243 224 242 257 262 273 277 270 272 283 282 284 287 289 292 294 295 294 292
282 285 287 290 281 268 250 256 246 222 221 242 249 261 254 253 245 208 232 236 244 249 260 276 265 259 263 269 273 278 270 279 276 272 279 283 286 289 290 292 292 292 293
287 286 284 285 291 267 278 282 269 229 219 251 223 232 240 230 260 242 211 230 240 248 264 275 279 279 278 269 272 273 277 272 268 273 280 286 289 289 290 289 289 289 291
283 283 277 277 281 278 277 278 269 266 246 239 234 237 245 255 240 220 232 234 243 261 262 270 279 277 286 278 274 271 273 275 278 281 285 287 288 287 287 288 288 289 289